BREEZE-M R/B, 41192

Orbit data source: Space-Track

BREEZE-M R/B, 41192 is space debris in HEO originally from a launch on Thu, 24 Dec 2015 UTC launched from the Tyuratam Missile And Space Complex (TTMTR). Debris objects in space refer to the collection of defunct objects orbiting the Earth. Examples of debris include non-operational satellites, rocket bodies, and fragments generated from explosions, collisions, or faulty payload assembly.

Loading next visibility...
Identifier
41192, 2015-082B
Orbit
HEO
Country
Flag of CISCIS
Related business
Manufacturer
Khrunichev
Mission
Spacecraft
Bus & Motor
BRIZ, Unknown motor
Mass
~1,600 kg wet, 1,600 kg dry
Launch date (UTC)
2015-12-24 (10 years ago)
Launch vehicle
Unknown
Launch site
Tyuratam Missile And Space Complex (TTMTR)
Object type
Payload
Rocket body
Debris
Shape & HBR
Cyl, 2.0 m
Radar Cross Section
15.135 m², Large (>1 m²)

Expand to show TLE details & history
Last TLE update: 6 days ago

TLE from 6 days ago
0 BREEZE-M R/B
1 41192U 15082B   26167.80926997 -.00000097  00000-0  00000-0 0  9992
2 41192  22.7859  72.6380 6018916 174.3157 198.0929  2.16568808 82908
Epoch: 2026-06-16T19:25Z
TLE epoch observation values (Epoch: 2026-06-16T19:25:20.925Z)
Latitude
0.00014°
Longitude
-123.78975°
Altitude
33,770.587 km
Speed
2.015 km/s
True Right ascension
04h 50m 29s
True Declination
0° 00' 00"
Sunlit
Object was in daylight at epoch
Visualization orbit readout
Latitude
Unknown
Longitude
Unknown
Altitude
Unknown
Speed
Unknown
Apparent Right ascension
Unknown
Apparent Declination
Unknown
Sunlit
N/A
Visualization observer readout
Local Sidereal Time
21:25:12
Azimuth
Unknown
Elevation
Unknown
Doppler factor
Unknown
Orbital elements
Apogee altitude
34,049.995 km
Perigee altitude
3,669.221 km
Semi-major axis
25,237.745 km
Eccentricity
0.60189
Inclination
22.7859°
RAAN
72.638°
Arg. of periapsis
174.3157°
True anomaly
185.65827°
Mean anomaly
198.0929°
Eccentric anomaly
191.32234°
Mean motion
0.54134 °/min
Orbital period
665.02 mins
BSTAR
0
Loading maneuver chart data...
Computing Atmospheric mass density...
Loading historical data...
Loading historical data...
Loading historical data...
Loading historical data...
Loading historical data...
Loading historical data...
Loading historical data...
Other satellites on launch #82 in the year 2015 (2015-12-24 UTC)

Documentation

Showing up to 5 results
|